Home > Weather > Köniz > Past weeks

Flag for Switzerland Weather for the Past 2 Weeks in Köniz, Bern, Switzerland

Now
46 °F

Broken clouds.


Feels Like: 45 °F
Forecast: 28 / 56 °F
Wind: 3 mph from North

Location: Bern / Belp

Current Time: Apr 28, 2016 at 10:06:49 PM

Latest Report: Apr 28, 2016 at 9:20 PM


Visibility: N/A

Pressure: 30.01 "Hg (27.97 "Hg at 579m altitude)

Humidity: 53%

Dew Point: 30 °F

Location of KönizLocation

Historic Weather in Köniz — Graph

°F

Köniz Temperature Yesterday

Maximum temperature yesterday: 45 °F (at 1:50 PM)
Minimum temperature yesterday: 30 °F (at 11:20 PM)
Average temperature yesterday: 38 °F

High & Low Weather Summary for the Past Weeks

 TemperatureHumidityPressure
High72 °F (Apr 21, 3:20 PM)100% (Apr 13, 9:20 PM)30.27 "Hg (Apr 13, 9:20 PM)
Low28 °F (Apr 28, 6:50 AM)32% (Apr 28, 4:20 PM)29.62 "Hg (Apr 16, 8:20 PM)
Average47 °F82%29.95 "Hg
* Reported Apr 13 9:20 PM — Apr 28 9:20 PM, Köniz, Weather by CustomWeather, © 2016

Note: Actual official high and low records may vary slightly from our data, if they occured in-between our weather recording intervals... More about our weather records

Advertising

Köniz Weather History for the Previous 24 Hours

Scroll right to see more
 ConditionsComfort  
Time TempWeatherWind HumidityBarometerVisibility
9:20 PM
Thu, Apr 28
46 °FBroken clouds.3 mph53%30.01 "HgN/A
8:20 PM48 °FBroken clouds.3 mph50%29.98 "HgN/A
7:50 PM48 °FPartly sunny.7 mph50%29.98 "HgN/A
7:20 PM50 °FPartly sunny.5 mph47%29.98 "HgN/A
6:50 PM52 °FPartly sunny.9 mph41%29.95 "HgN/A
6:20 PM54 °FPartly sunny.7 mph38%29.95 "HgN/A
5:50 PM54 °FPartly sunny.7 mph41%29.95 "HgN/A
5:20 PM52 °FPartly sunny.8 mph32%29.95 "HgN/A
4:50 PM52 °FPartly sunny.8 mph35%29.95 "HgN/A
4:20 PM52 °FPartly sunny.5 mph32%29.95 "HgN/A
3:50 PM52 °FPartly sunny.5 mph38%29.95 "HgN/A
3:20 PM54 °FScattered clouds.9 mph38%29.95 "HgN/A
2:20 PM52 °FScattered clouds.7 mph35%29.95 "HgN/A
1:20 PM50 °FScattered clouds.6 mph40%29.95 "HgN/A
12:50 PM50 °FPassing clouds.10 mph47%29.95 "HgN/A
12:20 PM48 °FPassing clouds.8 mph46%29.98 "HgN/A
11:50 AM48 °FPassing clouds.6 mph50%29.98 "HgN/A
11:20 AM48 °FPassing clouds.7 mph46%29.98 "HgN/A
10:20 AM45 °FPassing clouds.2 mph61%29.98 "HgN/A
9:50 AM43 °FPassing clouds.6 mph71%29.98 "HgN/A
9:20 AM41 °FSunny.6 mph70%29.98 "Hg10 mi
7:50 AM32 °FPassing clouds.2 mph100%29.98 "HgN/A
7:20 AM30 °FPassing clouds.1 mph100%29.98 "HgN/A
6:50 AM28 °FPassing clouds.5 mph100%29.95 "HgN/A
5:50 AM30 °FPassing clouds.3 mph93%29.95 "HgN/A
5:20 AM30 °FPassing clouds.2 mph100%29.95 "HgN/A
4:20 AM32 °FOvercast.1 mph100%29.95 "HgN/A
3:50 AM32 °FOvercast.3 mph93%29.95 "HgN/A
3:20 AM30 °FOvercast.5 mph100%29.95 "HgN/A
2:50 AM30 °FOvercast.5 mph100%29.92 "HgN/A
1:50 AM30 °FPassing clouds.5 mph100%29.95 "HgN/A
1:20 AM30 °FOvercast.7 mph100%29.95 "HgN/A
12:20 AM30 °FClear.6 mph100%29.95 "Hg10 mi
11:50 PM
Wed, Apr 27
30 °FChilly.6 mph100%29.95 "HgN/A
11:20 PM30 °FPassing clouds.6 mph100%29.95 "HgN/A
10:50 PM32 °FPassing clouds.5 mph93%29.95 "HgN/A
10:20 PM32 °FClear.5 mph100%29.95 "Hg10 mi
Weather by CustomWeather, © 2016

See weather overviewHow to use our weather pages